Zurück zum Katalog

METEOR 1-17 DEB

LostPO
NORAD 57540·DEBRIS·🇷🇺 Russia

Gestartet Apr 24, 1974 von Plesetsk Cosmodrome

Loading…

Nächste Überflüge (nächste 24 Stunden)

TLE

VeraltetSource: Space-Track

Epoche: Mar 2, 2025, 04:18 UTC

1 57540U 74025F   25061.17951246  .00010842  00000-0  52357-2 0  9997
2 57540  81.2155  34.3875 0012444 140.0291 220.1802 14.18463122 85298

Verfolge METEOR 1-17 DEB in Echtzeit mit AllMySat

Download on the App Store